Location: Le Hiès Ruisseau
(43.3000°N, 0.4500°W)
Time: 13:18:05
(UTC+00:00)

CZ-4 R/B - Visible Passes

Search period start: 25 September 2023 00:00
Search period end: 05 October 2023 00:00
Orbit: 576 x 583 km, 97.7° (Epoch: 25 September)

Date Brightness Start Highest point End Pass type
(mag) Time Alt. Az. Time Alt. Az. Time Alt. Az.
25 Sep 4.9 18:25:55 10° S 18:30:01 68° W 18:34:08 10° NNW visible
26 Sep 5.1 18:30:43 10° S 18:34:46 60° W 18:38:52 10° NNW visible
27 Sep 5.4 18:35:32 10° S 18:39:33 52° W 18:43:36 10° NNW visible
28 Sep 5.6 18:40:21 10° S 18:44:18 46° W 18:48:18 10° NNW visible
29 Sep 5.9 18:45:11 10° S 18:49:04 41° W 18:52:59 10° NNW visible
30 Sep 6.2 18:50:01 10° SSW 18:53:49 36° W 18:57:40 10° NNW visible
01 Oct 6.4 18:54:53 10° SSW 18:58:35 32° W 19:02:19 10° NNW visible
02 Oct 6.6 18:59:46 10° SSW 19:03:21 28° W 19:06:57 10° NW visible
03 Oct 6.8 19:04:40 10° SSW 19:08:06 25° W 19:11:34 10° NW visible
04 Oct 7.0 19:09:35 10° SSW 19:12:51 23° W 19:16:09 10° NW visible
